Flag for Mozambique Weather past 2 weeks in Nampula, Mozambique

Now
79 °F

Clear.


Feels Like: 79 °F
Forecast: 62 / 88 °F
Wind: 15 mph from Northeast

Location: Nampula Airport

Current Time: Sep 18, 2014 at 7:46:16 PM

Latest Report: Sep 18, 2014 at 7:00 PM


Visibility: 10 mi

Pressure: 30.01 "Hg

Humidity: 42%

Dew point: 54 °F

Location of NampulaLocation

Historic Weather in Nampula — Graph

°F

Nampula temperature yesterday

Maximum temperature yesterday: 90 °F (at 3:00 PM)
Minimum temperature yesterday: 66 °F (at 7:00 AM)
Average temperature yesterday: 81 °F

Past Weeks' High & Low Weather Summary

 TemperatureHumidityPressure
High91 °F (Sep 15, 3:00 PM)100% (Sep 5, 2:00 AM)30.27 "Hg (Sep 5, 2:00 AM)
Low63 °F (Sep 4, 7:00 AM)24% (Sep 17, 3:00 PM)29.92 "Hg (Sep 16, 4:00 PM)
Average76 °F64%30.11 "Hg
* Reported Sep 4 7:00 AM — Sep 18 6:00 PM, Nampula, Weather by CustomWeather, © 2014

Note: Actual official high and low records may vary slightly from our data, if they occured in-between our weather recording intervals... More about our weather records

Advertising

Nampula weather history for previous 24 hours

 ConditionsComfort  
Time TempWeatherWind HumidityBarometerVisibility
6:00 PM
Sep 18
81 °FClear.17 mph39%29.98 "Hg10 mi
5:00 PM84 °FSunny.16 mph35%29.95 "Hg10 mi
4:00 PM88 °FSunny.12 mph25%29.95 "Hg10 mi
3:00 PM90 °FSunny.8 mph24%29.95 "Hg10 mi
2:00 PM90 °FPassing clouds.3 mph27%29.95 "HgN/A
1:00 PM90 °FPassing clouds.9 mph27%30.01 "HgN/A
12:00 PM90 °FPassing clouds.12 mph27%30.09 "HgN/A
11:00 AM88 °FSunny.9 mph33%30.12 "Hg10 mi
10:00 AM84 °FSunny.8 mph40%30.12 "Hg10 mi
9:00 AM75 °FSunny.10 mph54%30.12 "Hg10 mi
8:00 AM68 °FSunny.12 mph69%30.12 "Hg10 mi
7:00 AM66 °FSunny.10 mph73%30.07 "Hg10 mi
6:00 AM66 °FSunny.8 mph100%30.12 "Hg10 mi
5:00 AM66 °FClear.1 mph100%30.12 "Hg10 mi
4:00 AM66 °FClear.9 mph100%30.09 "Hg10 mi
3:00 AM68 °FClear.2 mph94%30.12 "Hg10 mi
1:00 AM68 °FClear.2 mph94%30.12 "Hg10 mi
7:00 PM
Sep 17
81 °FClear.13 mph45%29.98 "Hg10 mi
Weather by CustomWeather, © 2014

See weather overviewHow to use our weather pages